Moab, UT

6:37 AM MST on November 17, 2019 (GMT -0700)
Canyonlands

Weather History for KCNY - October, 2019

Change the Weather History Date:

Wednesday, October 23, 2019

  Actual Average Record
Temperature  
Mean Temperature 50 °F 50 °F  
Max Temperature 68 °F 64 °F 85 °F (1954)
Min Temperature 32 °F 36 °F 26 °F (1929)
Degree Days  
Heating Degree Days 15 15  
Month to date heating degree days 308 225  
Since 1 July heating degree days 331 283  
Cooling Degree Days 0 0  
Month to date cooling degree days 0 4  
Year to date cooling degree days 1462 1288  
Growing Degree Days 1 (Base 50)    
Moisture  
Dew Point 18 °F    
Average Humidity 32    
Maximum Humidity 52    
Minimum Humidity 12    
Precipitation  
Precipitation 0.00 in 0.03 in 0.90 in (1975)
Month to date precipitation T 0.90  
Year to date precipitation 6.24 7.24  
Sea Level Pressure  
Sea Level Pressure 30.06 in    
Wind  
Wind Speed 8 mph (NNW)    
Max Wind Speed 31 mph    
Max Gust Speed 39 mph    
Visibility 10 miles    
Events      
T = Trace of Precipitation, MM = Missing Value Source: NWS Daily Summary

Daily Weather History Graph

Daily Weather History Graph

Search for Another Location

Airport or City:

Astronomy

Oct. 23, 2019 Rise Set
Actual Time 7:36 AM MDT 6:29 PM MDT
Civil Twilight 7:09 AM MDT 6:56 PM MDT
Nautical Twilight 6:38 AM MDT 7:27 PM MDT
Astronomical Twilight 6:07 AM MDT 7:58 PM MDT
Moon 2:03 AM MDT (10/23) 4:18 PM MDT (10/23)
Length of Visible Light 11h 47m
Length of Day
10h 53m
Waning Crescent, 26% of the Moon is Illuminated
Oct 23
Waning Crescent
Oct 27
New
Nov 4
First Quarter
Nov 12
Full
Nov 19
Last Quarter

Hourly Weather History & Observations

Time (MDT) Temp. Windchill Dew Point Humidity Pressure Visibility Wind Dir Wind Speed Gust Speed Precip Events Conditions
12:53 AM 42.1 °F 39.2 °F 21.0 °F 43% 30.08 in 10.0 mi WSW 4.6 mph - N/A   Clear
1:53 AM 36.0 °F - 15.1 °F 43% 30.08 in 10.0 mi Calm Calm - N/A   Clear
2:53 AM 39.9 °F - 21.9 °F 49% 30.06 in 10.0 mi Calm Calm - N/A   Clear
3:53 AM 37.9 °F - 19.9 °F 48% 30.05 in 10.0 mi Calm Calm - N/A   Clear
4:53 AM 37.9 °F - 21.0 °F 51% 30.05 in 10.0 mi Calm Calm - N/A   Clear
5:53 AM 37.0 °F - 19.9 °F 50% 30.06 in 10.0 mi Calm Calm - N/A   Clear
6:53 AM 39.0 °F - 21.0 °F 49% 30.07 in 10.0 mi Calm Calm - N/A   Clear
7:53 AM 36.0 °F - 16.0 °F 44% 30.09 in 10.0 mi Calm Calm - N/A   Clear
8:53 AM 43.0 °F - 21.0 °F 42% 30.11 in 10.0 mi Calm Calm - N/A   Clear
9:53 AM 50.0 °F - 24.1 °F 36% 30.09 in 10.0 mi Calm Calm - N/A   Clear
10:53 AM 54.0 °F - 25.0 °F 33% 30.08 in 10.0 mi Calm Calm - N/A   Clear
11:53 AM 59.0 °F - 24.1 °F 26% 30.05 in 10.0 mi WSW 3.5 mph - N/A   Clear
12:53 PM 63.0 °F - 19.0 °F 18% 30.03 in 10.0 mi WNW 10.4 mph - N/A   Clear
1:53 PM 64.0 °F - 17.1 °F 16% 30.01 in 10.0 mi Variable 6.9 mph - N/A   Clear
2:53 PM 66.0 °F - 12.9 °F 13% 29.96 in 10.0 mi West 11.5 mph - N/A   Clear
3:53 PM 66.9 °F - 12.0 °F 12% 29.94 in 10.0 mi WNW 10.4 mph 20.7 mph N/A   Clear
4:53 PM 66.0 °F - 12.0 °F 12% 29.93 in 10.0 mi NW 11.5 mph - N/A   Clear
5:53 PM 64.0 °F - 10.0 °F 12% 29.94 in 10.0 mi NW 12.7 mph - N/A   Clear
6:53 PM 57.9 °F - 6.1 °F 13% 29.98 in 10.0 mi NW 21.9 mph 34.5 mph N/A   Clear
7:53 PM 54.0 °F - 6.1 °F 15% 30.05 in 10.0 mi NW 21.9 mph 32.2 mph N/A   Clear
8:38 PM 51.1 °F - 21.9 °F 32% 30.13 in 10.0 mi NE 13.8 mph 26.5 mph N/A   Clear
8:53 PM 48.9 °F - 24.1 °F 38% 30.12 in 10.0 mi NE 15.0 mph - N/A   Clear
9:53 PM 46.0 °F 36.9 °F 23.0 °F 40% 30.14 in 10.0 mi ENE 28.8 mph 39.1 mph N/A   Clear
10:53 PM 44.1 °F 37.7 °F 21.9 °F 42% 30.18 in 10.0 mi ENE 12.7 mph - N/A   Scattered Clouds
11:53 PM 42.1 °F 36.1 °F 21.9 °F 45% 30.19 in 10.0 mi NE 10.4 mph - N/A   Clear